Regional Weather Roundup
Issued by NWS

Current Version | Previous Version | Text Only | Print | Product List | Glossary Off
Versions: 1 2 3 4 5 6 7 8 9 10 11 12 13 14 15 16 17 18 19 20 21 22 23 24 25 26 27 28 29 30 31 32 33 34 35 36 37 38 39 40 41 42 43 44 45 46 47 48 49 50

000
ASUS42 KFFC 260810
RWRGA
WEATHER ROUNDUP FOR GEORGIA
NATIONAL WEATHER SERVICE PEACHTREE CITY GA
400 AM EDT WED JUL 26 2017

NOTE: "FAIR" INDICATES FEW OR NO CLOUDS BELOW 12,000 FEET WITH NO
SIGNIFICANT WEATHER AND/OR OBSTRUCTIONS TO VISIBILITY.

* = USE WITH CAUTION. THE STATIONS MARKED WITH AN ASTERISK MAY NOT
REPORT WEATHER SUCH AS PRECIPITATION, FOG, OR THUNDER AND ARE NOT
QUALITY CONTROLLED BY NWS.

THE REMARK "TC" DENOTES TEMPERATURE READING IN DEGREES CELSIUS.

GAZ001>058-260900-
NORTH GEORGIA

CITY           SKY/WX    TMP DP  RH WIND       PRES   REMARKS
ATLANTA        PTCLDY    76  74  93 CALM      30.11R
ATHENS         CLOUDY    77  77 100 N3        30.10S
CHAMBLEE       CLEAR     75  71  87 CALM      30.11R
PEACHTREE CITY PTCLDY    73  72  96 CALM      30.10S
ROME           CLEAR     75  72  90 N3        30.08F
WEST ATLANTA   CLEAR     73  72  96 CALM      30.10R
GAINESVILLE    CLEAR     74  69  85 E5        30.14R
CARTERSVILLE   CLEAR     71  71 100 CALM      30.10S


CITY           SKY/WX    TMP DP  RH WIND       PRES   REMARKS
CANTON*        CLEAR     73  73 100 CALM      30.13S
$$

GAZ059>098-102>109-260900-
CENTRAL GEORGIA

CITY           SKY/WX    TMP DP  RH WIND       PRES   REMARKS
AUGUSTA-BUSH   PTCLDY    74  72  93 CALM      30.06S FOG
AUGUSTA-DANIEL PTCLDY    75  69  81 NW3       30.08R
COLUMBUS       PTCLDY    77  75  93 N3        30.07F
MACON          CLEAR     72  70  93 CALM      30.08R
ROBINS AFB     CLOUDY    73  72  94 CALM      30.07S


CITY           SKY/WX    TMP DP  RH WIND       PRES   REMARKS
LAGRANGE*      CLOUDY    77  76  98 CALM      30.09F FOG
SYLVANIA*      CLOUDY    73  73 100 NE3       30.08S FOG
MILLEDGEVILLE* CLEAR     72  70  94 CALM      30.08S
$$

GAZ099>101-110>166-260900-
SOUTH GEORGIA

CITY           SKY/WX    TMP DP  RH WIND       PRES   REMARKS
SAVANNAH       CLOUDY   N/A N/A N/A SW8       30.07S
VALDOSTA       MOCLDY    73  73 100 CALM      30.06S
ALMA           CLOUDY    75  73  93 CALM      30.07R
ST SIMONS      CLOUDY    79  78  97 CALM      30.06R
FT STEWART     CLOUDY    74  73  94 CALM      30.05S
ALBANY         PTCLDY    77  76  96 NW3       30.08S
HUNTER AFB     CLOUDY    75  74  96 W6        30.04S
MOODY AFB      CLOUDY    75  74  96 W3        30.05F
BRUNSWICK      CLOUDY    75  75 100 CALM      30.07S


CITY           SKY/WX    TMP DP  RH WIND       PRES   REMARKS
BAINBRIDGE*    PTCLDY    77  77 100 CALM      30.07S
MOULTRIE*      CLOUDY    75  73  94 CALM      30.08S FOG
VIDALIA*       CLOUDY    73  73 100 CALM      30.08R
WAYCROSS*      CLOUDY    77  77 100 CALM      30.07S
DOUGLAS*       CLOUDY    77  73  88 CALM      30.08F
$$




USA.gov is the U.S. government's official web portal to all federal, state and local government web resources and services.